TJS-11

Last updated on Tue Jul 01 2025 00:02:49 GMT+0000 (Coordinated Universal Time)

1 59020U 24037A 25181.76016302 -.00000368 00000+0 00000+0 0 9990 2 59020 4.7026 323.4446 0003101 172.3955 177.1306 1.00274496 5081
UTC large
Height (km)
Speed (km/s)
/
Latitude / Longitude
Inclination (degrees)
Orbital Period (minutes)
Azimuth
Elevation
Range (km)
Doppler Factor

Next 0 passes for location: London (51.5072 / 0.1276)

Sorry there are no passes over London.